sat.trackr.live / text

‹ back to catalog

STARLINK-11264 [DTC]

NORAD 60906 · 2024-154D

PAYLOAD ACTIVE UNKNOWN

§ Identity

Operator
Country
US
Launch date
2024-08-31
Launch site
AFETR
Launch vehicle
Mass (kg)
RCS (m²)

Purposes: comms

External: N2YO · Heavens-Above · Gunter

§ Orbital elements

Epoch: 2026-09-21T16:20:39.919776Z

Period
91.74 min
Inclination
53.1581°
Eccentricity
0.0000727
Mean motion
15.69712271 rev/d
Perigee alt
359.2 km
Apogee alt
360.2 km
Semi-major
6,737.9 km
B*
-9.3409e-6
RAAN
245.3489°
Arg perigee
91.3462°
Mean anomaly
268.7639°
Rev number
11,929

§ Raw data

STARLINK-11264 [DTC]1 60906U 24154D   26264.68101759 -.00001719  00000+0 -93409-5 0  99932 60906  53.1581 245.3489 0000727  91.3462 268.7639 15.69712271119296

JSON: /api/v1/satellites/60906 · /tle

For live sub-satellite position, see the globe view (requires WebGL).

§ Visibility from observer

Set your observer location to see the next 7 days of passes ≥ 10°. The values pass through the URL so the page stays shareable.

No JS? Fill the form by hand. The geolocation button needs JavaScript.